| time (UTC) | temp F | wind direction | speed MPH | gust MPH | rain 1hr in | rain 24hr in | rain mn in | humidity % | barometer mb |
| 20260901035306 | 62 | 114 | 3.0 | 6.0 | 0.00 | 0.06 | 0.06 | 77 | 1016.1 |
| 20260901034805 | 62 | 101 | 2.0 | 6.0 | 0.00 | 0.06 | 0.06 | 77 | 1016.1 |
| 20260901034305 | 62 | 186 | 2.0 | 5.0 | 0.00 | 0.06 | 0.06 | 76 | 1016.1 |
| 20260901033805 | 62 | 192 | 3.0 | 5.0 | 0.00 | 0.06 | 0.06 | 76 | 1016.1 |
| 20260901033305 | 63 | 231 | 3.0 | 6.0 | 0.00 | 0.06 | 0.06 | 75 | 1016.1 |
| 20260901032805 | 63 | 247 | 3.0 | 7.0 | 0.00 | 0.06 | 0.06 | 75 | 1016.1 |
| 20260901032306 | 63 | 229 | 5.0 | 7.0 | 0.00 | 0.06 | 0.06 | 75 | 1016.1 |
| 20260901031806 | 63 | 221 | 3.0 | 7.0 | 0.00 | 0.06 | 0.06 | 75 | 1016.1 |
| 20260901031305 | 63 | 227 | 6.0 | 12.0 | 0.00 | 0.06 | 0.06 | 76 | 1016.1 |
| 20260901030805 | 63 | 241 | 7.0 | 12.0 | 0.00 | 0.06 | 0.06 | 77 | 1016.1 |
| 20260901030305 | 63 | 222 | 6.0 | 9.0 | 0.00 | 0.06 | 0.06 | 78 | 1016.1 |
| 20260901025805 | 63 | 212 | 6.0 | 12.0 | 0.00 | 0.06 | 0.06 | 79 | 1015.9 |
| 20260901025306 | 63 | 223 | 5.0 | 8.0 | 0.00 | 0.06 | 0.06 | 81 | 1015.9 |
| 20260901024805 | 62 | 194 | 3.0 | 6.0 | 0.00 | 0.06 | 0.06 | 81 | 1015.9 |
| 20260901024305 | 62 | 180 | 2.0 | 3.0 | 0.00 | 0.06 | 0.06 | 80 | 1015.9 |
| 20260901023805 | 62 | 175 | 2.0 | 3.0 | 0.00 | 0.06 | 0.06 | 80 | 1015.8 |
| 20260901023305 | 62 | 175 | 3.0 | 5.0 | 0.00 | 0.06 | 0.06 | 80 | 1015.8 |
| 20260901022805 | 62 | 164 | 2.0 | 6.0 | 0.00 | 0.06 | 0.06 | 80 | 1015.8 |
| 20260901022306 | 62 | 167 | 3.0 | 6.0 | 0.00 | 0.06 | 0.06 | 80 | 1016.9 |
| 20260901021805 | 62 | 195 | 3.0 | 5.0 | 0.00 | 0.06 | 0.06 | 80 | 1016.9 |
| 20260901021305 | 62 | 173 | 2.0 | 7.0 | 0.00 | 0.06 | 0.06 | 80 | 1016.9 |
| 20260901020305 | 63 | 114 | 3.0 | 9.0 | 0.00 | 0.06 | 0.06 | 80 | 1016.9 |
| 20260901015805 | 63 | 104 | 7.0 | 12.0 | 0.00 | 0.06 | 0.06 | 80 | 1016.9 |
| 20260901014805 | 63 | 115 | 6.0 | 9.0 | 0.00 | 0.06 | 0.06 | 80 | 1016.9 |
| 20260901013805 | 63 | 128 | 5.0 | 8.0 | 0.01 | 0.06 | 0.06 | 80 | 1016.9 |
| 20260901013305 | 63 | 148 | 5.0 | 9.0 | 0.01 | 0.06 | 0.06 | 78 | 1016.9 |
| 20260901011805 | 63 | 140 | 6.0 | 10.0 | 0.03 | 0.06 | 0.06 | 78 | 1017.3 |
| 20260901011305 | 63 | 151 | 5.0 | 10.0 | 0.04 | 0.06 | 0.06 | 77 | 1017.3 |
| 20260901010805 | 63 | 145 | 4.0 | 10.0 | 0.04 | 0.06 | 0.06 | 77 | 1017.3 |
| 20260901010305 | 63 | 136 | 6.0 | 13.0 | 0.04 | 0.06 | 0.06 | 76 | 1017.4 |
| 20260901005805 | 63 | 144 | 3.0 | 6.0 | 0.04 | 0.06 | 0.06 | 76 | 1017.5 |
| 20260901005307 | 63 | 104 | 3.0 | 5.0 | 0.04 | 0.06 | 0.06 | 74 | 1017.5 |
| 20260901004805 | 64 | 116 | 2.0 | 5.0 | 0.04 | 0.06 | 0.06 | 73 | 1017.7 |
| 20260901004305 | 64 | 146 | 2.0 | 5.0 | 0.06 | 0.06 | 0.06 | 72 | 1017.6 |
| 20260901003305 | 65 | 228 | 6.0 | 13.0 | 0.05 | 0.05 | 0.05 | 68 | 1017.7 |
| 20260901002805 | 65 | 224 | 3.0 | 7.0 | 0.04 | 0.04 | 0.04 | 67 | 1017.7 |
| 20260901002306 | 66 | 264 | 3.0 | 8.0 | 0.04 | 0.04 | 0.04 | 65 | 1017.7 |
| 20260901001805 | 67 | 254 | 7.0 | 12.0 | 0.03 | 0.03 | 0.03 | 64 | 1017.7 |
| 20260901001306 | 67 | 315 | 0.0 | 5.0 | 0.02 | 0.02 | 0.02 | 64 | 1017.7 |
| 20260901000805 | 67 | 313 | 1.0 | 7.0 | 0.02 | 0.02 | 0.02 | 62 | 1017.9 |
| 20260901000305 | 67 | 36 | 3.0 | 7.0 | 0.02 | 0.02 | 0.02 | 62 | 1017.9 |
| 20260831235805 | 67 | 36 | 2.0 | 3.0 | 0.02 | 0.02 | 0.02 | 62 | 1017.8 |
| 20260831235306 | 68 | 49 | 3.0 | 5.0 | 0.02 | 0.02 | 0.02 | 61 | 1017.8 |
| 20260831234805 | 68 | 284 | 2.0 | 10.0 | 0.02 | 0.02 | 0.02 | 60 | 1017.8 |
| 20260831234305 | 68 | 229 | 7.0 | 16.0 | 0.00 | 0.00 | 0.00 | 60 | 1017.6 |
| 20260831233805 | 68 | 249 | 7.0 | 13.0 | 0.00 | 0.00 | 0.00 | 59 | 1016.1 |
| 20260831233306 | 68 | 225 | 8.0 | 13.0 | 0.00 | 0.00 | 0.00 | 58 | 1016.1 |
| 20260831232805 | 69 | 245 | 10.0 | 16.0 | 0.00 | 0.00 | 0.00 | 57 | 1016.1 |
| 20260831232306 | 69 | 251 | 9.0 | 16.0 | 0.00 | 0.00 | 0.00 | 56 | 1016.1 |
| 20260831231805 | 69 | 251 | 13.0 | 21.0 | 0.00 | 0.00 | 0.00 | 54 | 1016.1 |
| 20260831231305 | 69 | 236 | 17.0 | 24.0 | 0.00 | 0.00 | 0.00 | 53 | 1016.1 |
| 20260831230805 | 70 | 222 | 18.0 | 26.0 | 0.00 | 0.00 | 0.00 | 51 | 1014.6 |
| 20260831230305 | 72 | 227 | 16.0 | 26.0 | 0.00 | 0.00 | 0.00 | 48 | 1014.6 |
| 20260831225806 | 73 | 227 | 16.0 | 28.0 | 0.00 | 0.00 | 0.00 | 48 | 1014.6 |
| 20260831224805 | 75 | 180 | 21.0 | 36.0 | 0.00 | 0.00 | 0.00 | 51 | 1013.8 |
| 20260831224305 | 76 | 193 | 13.0 | 20.0 | 0.00 | 0.00 | 0.00 | 48 | 1012.3 |
| 20260831223805 | 76 | 167 | 11.0 | 17.0 | 0.00 | 0.00 | 0.00 | 49 | 1012.3 |
| 20260831223305 | 76 | 155 | 12.0 | 16.0 | 0.00 | 0.00 | 0.00 | 47 | 1012.3 |
| 20260831222806 | 76 | 154 | 12.0 | 22.0 | 0.00 | 0.00 | 0.00 | 49 | 1012.3 |
| 20260831222306 | 76 | 152 | 12.0 | 21.0 | 0.00 | 0.01 | 0.00 | 51 | 1012.4 |
| 20260831221805 | 75 | 152 | 10.0 | 22.0 | 0.00 | 0.02 | 0.00 | 53 | 1012.4 |
| 20260831221306 | 75 | 167 | 11.0 | 20.0 | 0.00 | 0.02 | 0.00 | 56 | 1012.4 |
| 20260831220805 | 76 | 164 | 12.0 | 20.0 | 0.00 | 0.02 | 0.00 | 57 | 1012.4 |
| 20260831215805 | 77 | 169 | 12.0 | 20.0 | 0.00 | 0.02 | 0.00 | 52 | 1012.3 |
| 20260831215306 | 76 | 186 | 12.0 | 18.0 | 0.00 | 0.02 | 0.00 | 57 | 1012.1 |
| 20260831214805 | 76 | 185 | 14.0 | 20.0 | 0.00 | 0.02 | 0.00 | 55 | 1012.2 |
| 20260831214305 | 77 | 170 | 14.0 | 21.0 | 0.00 | 0.02 | 0.00 | 52 | 1012.4 |
| 20260831213805 | 78 | 174 | 13.0 | 20.0 | 0.00 | 0.02 | 0.00 | 52 | 1012.4 |
| 20260831212805 | 78 | 170 | 13.0 | 20.0 | 0.00 | 0.02 | 0.00 | 52 | 1012.4 |
| 20260831211805 | 80 | 176 | 8.0 | 14.0 | 0.00 | 0.02 | 0.00 | 50 | 1012.4 |
| 20260831211306 | 81 | 162 | 10.0 | 15.0 | 0.00 | 0.02 | 0.00 | 46 | 1012.3 |
| 20260831210805 | 82 | 170 | 6.0 | 12.0 | 0.00 | 0.02 | 0.00 | 44 | 1012.3 |
| 20260831210305 | 83 | 170 | 7.0 | 12.0 | 0.00 | 0.02 | 0.00 | 41 | 1012.3 |
| 20260831205805 | 83 | 154 | 5.0 | 8.0 | 0.00 | 0.02 | 0.00 | 39 | 1012.3 |
| 20260831204805 | 83 | 164 | 4.0 | 7.0 | 0.00 | 0.02 | 0.00 | 39 | 1012.6 |
| 20260831204305 | 83 | 152 | 6.0 | 12.0 | 0.00 | 0.02 | 0.00 | 38 | 1012.7 |
| 20260831203805 | 83 | 144 | 6.0 | 10.0 | 0.00 | 0.02 | 0.00 | 37 | 1012.9 |
| 20260831202306 | 82 | 145 | 5.0 | 10.0 | 0.00 | 0.02 | 0.00 | 38 | 1013.1 |
| 20260831201805 | 82 | 143 | 8.0 | 12.0 | 0.00 | 0.02 | 0.00 | 37 | 1013.1 |
| 20260831200805 | 82 | 148 | 6.0 | 9.0 | 0.00 | 0.02 | 0.00 | 40 | 1013.1 |
| 20260831200305 | 82 | 144 | 4.0 | 8.0 | 0.00 | 0.02 | 0.00 | 40 | 1013.1 |
| 20260831195306 | 82 | 135 | 4.0 | 8.0 | 0.00 | 0.02 | 0.00 | 41 | 1013.2 |
| 20260831194305 | 81 | 121 | 5.0 | 9.0 | 0.00 | 0.02 | 0.00 | 41 | 1013.6 |
| 20260831193805 | 81 | 144 | 4.0 | 9.0 | 0.00 | 0.02 | 0.00 | 43 | 1013.5 |
| 20260831193305 | 81 | 143 | 3.0 | 9.0 | 0.00 | 0.02 | 0.00 | 44 | 1013.8 |
| 20260831192306 | 80 | 145 | 6.0 | 10.0 | 0.00 | 0.02 | 0.00 | 42 | 1013.8 |
| 20260831191805 | 80 | 136 | 6.0 | 10.0 | 0.00 | 0.02 | 0.00 | 46 | 1014.2 |
| 20260831191305 | 80 | 166 | 4.0 | 7.0 | 0.00 | 0.02 | 0.00 | 48 | 1014.2 |
| 20260831190305 | 79 | 133 | 4.0 | 8.0 | 0.00 | 0.02 | 0.00 | 48 | 1014.2 |
| 20260831185805 | 78 | 137 | 6.0 | 9.0 | 0.00 | 0.02 | 0.00 | 49 | 1014.9 |
| 20260831185306 | 78 | 154 | 3.0 | 7.0 | 0.00 | 0.02 | 0.00 | 50 | 1014.9 |
| 20260831184805 | 77 | 138 | 2.0 | 7.0 | 0.00 | 0.02 | 0.00 | 51 | 1014.9 |
| 20260831184304 | 77 | 165 | 3.0 | 6.0 | 0.00 | 0.02 | 0.00 | 51 | 1014.9 |
| 20260831183805 | 76 | 156 | 4.0 | 8.0 | 0.00 | 0.02 | 0.00 | 50 | 1014.9 |
| 20260831183305 | 76 | 131 | 2.0 | 8.0 | 0.00 | 0.02 | 0.00 | 53 | 1014.9 |
| 20260831182805 | 76 | 130 | 4.0 | 8.0 | 0.00 | 0.02 | 0.00 | 52 | 1014.9 |
| 20260831182306 | 75 | 176 | 3.0 | 7.0 | 0.00 | 0.02 | 0.00 | 53 | 1015.6 |
| 20260831181805 | 75 | 134 | 3.0 | 7.0 | 0.00 | 0.02 | 0.00 | 54 | 1015.6 |
| 20260831181305 | 74 | 163 | 4.0 | 7.0 | 0.00 | 0.02 | 0.00 | 54 | 1015.6 |
| 20260831180805 | 74 | 161 | 4.0 | 7.0 | 0.00 | 0.02 | 0.00 | 53 | 1015.6 |
| 20260831180305 | 75 | 177 | 2.0 | 7.0 | 0.00 | 0.02 | 0.00 | 54 | 1015.6 |
| 20260831175306 | 75 | 158 | 6.0 | 9.0 | 0.00 | 0.02 | 0.00 | 52 | 1015.6 |
| 20260831174805 | 75 | 166 | 3.0 | 8.0 | 0.00 | 0.02 | 0.00 | 54 | 1015.6 |
| 20260831174305 | 74 | 119 | 3.0 | 7.0 | 0.00 | 0.02 | 0.00 | 55 | 1015.6 |
| 20260831173805 | 74 | 122 | 4.0 | 8.0 | 0.00 | 0.02 | 0.00 | 55 | 1015.6 |
| 20260831173305 | 73 | 137 | 5.0 | 8.0 | 0.00 | 0.02 | 0.00 | 55 | 1015.6 |
| 20260831172306 | 73 | 150 | 5.0 | 8.0 | 0.00 | 0.02 | 0.00 | 56 | 1015.6 |
| 20260831171305 | 73 | 156 | 5.0 | 8.0 | 0.00 | 0.02 | 0.00 | 56 | 1015.5 |
| 20260831170806 | 73 | 173 | 3.0 | 8.0 | 0.00 | 0.02 | 0.00 | 57 | 1015.5 |
| 20260831165305 | 71 | 154 | 3.0 | 8.0 | 0.00 | 0.02 | 0.00 | 59 | 1015.7 |
| 20260831164805 | 71 | 147 | 5.0 | 9.0 | 0.00 | 0.02 | 0.00 | 58 | 1015.7 |
| 20260831164304 | 71 | 168 | 6.0 | 9.0 | 0.00 | 0.02 | 0.00 | 59 | 1015.7 |
| 20260831163805 | 71 | 155 | 3.0 | 9.0 | 0.00 | 0.02 | 0.00 | 59 | 1015.6 |
| 20260831163305 | 71 | 165 | 6.0 | 10.0 | 0.00 | 0.02 | 0.00 | 58 | 1015.6 |
| 20260831162805 | 71 | 138 | 5.0 | 9.0 | 0.00 | 0.02 | 0.00 | 58 | 1015.6 |
| 20260831162306 | 71 | 136 | 6.0 | 8.0 | 0.00 | 0.02 | 0.00 | 58 | 1015.6 |
| 20260831161805 | 71 | 133 | 3.0 | 7.0 | 0.00 | 0.02 | 0.00 | 57 | 1015.0 |
| 20260831161305 | 71 | 135 | 4.0 | 8.0 | 0.00 | 0.02 | 0.00 | 57 | 1015.0 |
| 20260831160804 | 72 | 150 | 3.0 | 7.0 | 0.00 | 0.02 | 0.00 | 57 | 1015.0 |
| 20260831160304 | 72 | 177 | 3.0 | 6.0 | 0.00 | 0.02 | 0.00 | 57 | 1015.0 |
| 20260831155805 | 72 | 141 | 2.0 | 6.0 | 0.00 | 0.02 | 0.00 | 58 | 1015.0 |
| 20260831154805 | 71 | 127 | 2.0 | 5.0 | 0.00 | 0.02 | 0.00 | 62 | 1015.0 |
| 20260831154305 | 70 | 156 | 2.0 | 5.0 | 0.00 | 0.02 | 0.00 | 62 | 1015.3 |
| 20260831153804 | 70 | 143 | 3.0 | 7.0 | 0.00 | 0.02 | 0.00 | 64 | 1015.3 |
| 20260831153305 | 69 | 153 | 2.0 | 7.0 | 0.00 | 0.02 | 0.00 | 65 | 1015.3 |
| 20260831152805 | 69 | 172 | 2.0 | 5.0 | 0.00 | 0.02 | 0.00 | 67 | 1015.3 |
| 20260831152306 | 69 | 161 | 2.0 | 3.0 | 0.00 | 0.02 | 0.00 | 67 | 1015.3 |
| 20260831151805 | 68 | 172 | 2.0 | 5.0 | 0.00 | 0.02 | 0.00 | 68 | 1015.3 |
| 20260831150805 | 68 | 186 | 3.0 | 5.0 | 0.00 | 0.02 | 0.00 | 69 | 1015.4 |
| 20260831145805 | 67 | 157 | 2.0 | 3.0 | 0.00 | 0.02 | 0.00 | 69 | 1015.4 |
| 20260831145306 | 67 | 173 | 1.0 | 3.0 | 0.00 | 0.02 | 0.00 | 69 | 1015.4 |
| 20260831144804 | 67 | 71 | 0.0 | 2.0 | 0.00 | 0.02 | 0.00 | 70 | 1015.4 |
| 20260831144305 | 66 | 71 | 0.0 | 1.0 | 0.00 | 0.02 | 0.00 | 70 | 1015.4 |
| 20260831143805 | 66 | 71 | 0.0 | 0.0 | 0.00 | 0.02 | 0.00 | 71 | 1015.4 |
| 20260831143305 | 66 | 71 | 1.0 | 3.0 | 0.00 | 0.02 | 0.00 | 71 | 1015.5 |
| 20260831142804 | 65 | 75 | 2.0 | 3.0 | 0.00 | 0.02 | 0.00 | 72 | 1015.1 |
| 20260831142306 | 64 | 69 | 2.0 | 3.0 | 0.00 | 0.02 | 0.00 | 73 | 1015.1 |
| 20260831141805 | 64 | 69 | 2.0 | 3.0 | 0.00 | 0.02 | 0.00 | 75 | 1015.1 |
| 20260831141305 | 63 | 69 | 0.0 | 3.0 | 0.00 | 0.02 | 0.00 | 76 | 1015.1 |
| 20260831140805 | 62 | 66 | 2.0 | 3.0 | 0.00 | 0.02 | 0.00 | 77 | 1015.1 |
| 20260831140305 | 62 | 85 | 0.0 | 0.0 | 0.00 | 0.02 | 0.00 | 78 | 1015.1 |
| 20260831135306 | 61 | 85 | 1.0 | 2.0 | 0.00 | 0.02 | 0.00 | 80 | 1015.1 |
| 20260831134804 | 61 | 85 | 1.0 | 2.0 | 0.00 | 0.02 | 0.00 | 81 | 1015.1 |
| 20260831134305 | 60 | 230 | 0.0 | 2.0 | 0.00 | 0.02 | 0.00 | 81 | 1015.1 |
| 20260831133805 | 60 | 230 | 0.0 | 0.0 | 0.00 | 0.02 | 0.00 | 81 | 1015.1 |
| 20260831132805 | 60 | 230 | 0.0 | 1.0 | 0.00 | 0.08 | 0.00 | 81 | 1015.0 |
| 20260831132307 | 60 | 246 | 0.0 | 2.0 | 0.00 | 0.08 | 0.00 | 81 | 1014.9 |
| 20260831131805 | 60 | 259 | 0.0 | 0.0 | 0.00 | 0.08 | 0.00 | 81 | 1014.6 |
| 20260831131305 | 60 | 24 | 0.0 | 0.0 | 0.00 | 0.08 | 0.00 | 81 | 1014.6 |
| 20260831130305 | 60 | 67 | 0.0 | 0.0 | 0.00 | 0.08 | 0.00 | 80 | 1014.6 |
| 20260831125805 | 60 | 67 | 0.0 | 0.0 | 0.00 | 0.08 | 0.00 | 79 | 1014.6 |
| 20260831125306 | 60 | 67 | 0.0 | 0.0 | 0.00 | 0.08 | 0.00 | 78 | 1014.6 |
| 20260831124305 | 60 | 67 | 0.0 | 2.0 | 0.00 | 0.08 | 0.00 | 79 | 1014.6 |
| 20260831123805 | 60 | 70 | 2.0 | 3.0 | 0.00 | 0.08 | 0.00 | 79 | 1014.6 |
| 20260831123305 | 60 | 82 | 3.0 | 5.0 | 0.00 | 0.08 | 0.00 | 80 | 1014.5 |
| 20260831122805 | 60 | 76 | 2.0 | 5.0 | 0.00 | 0.08 | 0.00 | 80 | 1014.6 |
| 20260831122306 | 60 | 77 | 1.0 | 5.0 | 0.00 | 0.08 | 0.00 | 81 | 1014.6 |
| 20260831121305 | 59 | 63 | 3.0 | 3.0 | 0.00 | 0.08 | 0.00 | 82 | 1014.5 |
| 20260831120805 | 59 | 63 | 0.0 | 3.0 | 0.00 | 0.08 | 0.00 | 82 | 1014.6 |
| 20260831120305 | 59 | 99 | 0.0 | 0.0 | 0.00 | 0.08 | 0.00 | 82 | 1014.7 |
| 20260831115804 | 59 | 157 | 0.0 | 0.0 | 0.00 | 0.08 | 0.00 | 82 | 1014.7 |
| 20260831115306 | 59 | 215 | 0.0 | 0.0 | 0.00 | 0.08 | 0.00 | 82 | 1014.8 |
| 20260831114805 | 59 | 215 | 0.0 | 0.0 | 0.00 | 0.08 | 0.00 | 82 | 1014.8 |
| 20260831113804 | 59 | 215 | 0.0 | 0.0 | 0.00 | 0.08 | 0.00 | 82 | 1014.9 |
| 20260831112804 | 59 | 215 | 0.0 | 0.0 | 0.00 | 0.08 | 0.00 | 82 | 1014.9 |
| 20260831112307 | 59 | 215 | 0.0 | 0.0 | 0.00 | 0.08 | 0.00 | 82 | 1014.9 |
| 20260831111804 | 59 | 215 | 0.0 | 2.0 | 0.00 | 0.08 | 0.00 | 82 | 1015.0 |
| 20260831111304 | 59 | 212 | 1.0 | 2.0 | 0.00 | 0.08 | 0.00 | 82 | 1015.0 |
| 20260831110805 | 59 | 101 | 1.0 | 3.0 | 0.00 | 0.08 | 0.00 | 82 | 1014.8 |
| 20260831110305 | 59 | 101 | 1.0 | 3.0 | 0.00 | 0.08 | 0.00 | 82 | 1014.8 |
| 20260831105306 | 59 | 94 | 0.0 | 3.0 | 0.00 | 0.08 | 0.00 | 82 | 1014.8 |
| 20260831104804 | 59 | 57 | 0.0 | 0.0 | 0.00 | 0.08 | 0.00 | 81 | 1014.8 |
| 20260831104304 | 59 | 57 | 0.0 | 0.0 | 0.00 | 0.08 | 0.00 | 81 | 1014.7 |
| 20260831103805 | 59 | 57 | 0.0 | 0.0 | 0.00 | 0.08 | 0.00 | 81 | 1014.7 |
| 20260831103305 | 59 | 57 | 0.0 | 0.0 | 0.00 | 0.08 | 0.00 | 81 | 1014.7 |
| 20260831102804 | 60 | 57 | 0.0 | 0.0 | 0.00 | 0.08 | 0.00 | 81 | 1014.7 |
| 20260831102306 | 60 | 57 | 0.0 | 0.0 | 0.00 | 0.08 | 0.00 | 81 | 1014.6 |
| 20260831101805 | 60 | 57 | 0.0 | 0.0 | 0.00 | 0.08 | 0.00 | 81 | 1014.4 |
| 20260831101304 | 60 | 57 | 0.0 | 0.0 | 0.00 | 0.08 | 0.00 | 81 | 1014.4 |
| 20260831100804 | 60 | 57 | 0.0 | 0.0 | 0.00 | 0.08 | 0.00 | 80 | 1014.2 |
| 20260831100305 | 60 | 57 | 0.0 | 0.0 | 0.00 | 0.08 | 0.00 | 80 | 1014.2 |
| 20260831095805 | 60 | 57 | 0.0 | 0.0 | 0.00 | 0.08 | 0.00 | 79 | 1014.2 |
| 20260831095306 | 60 | 57 | 0.0 | 0.0 | 0.00 | 0.08 | 0.00 | 79 | 1014.2 |
| 20260831094805 | 61 | 57 | 0.0 | 0.0 | 0.00 | 0.08 | 0.00 | 79 | 1014.2 |
| 20260831094305 | 61 | 57 | 0.0 | 0.0 | 0.00 | 0.08 | 0.00 | 78 | 1014.1 |
| 20260831093805 | 61 | 57 | 0.0 | 0.0 | 0.00 | 0.08 | 0.00 | 78 | 1014.2 |
| 20260831093305 | 61 | 57 | 0.0 | 0.0 | 0.00 | 0.08 | 0.00 | 78 | 1014.2 |
| 20260831092805 | 61 | 57 | 0.0 | 0.0 | 0.00 | 0.08 | 0.00 | 78 | 1014.2 |
| 20260831092306 | 61 | 57 | 0.0 | 1.0 | 0.00 | 0.08 | 0.00 | 78 | 1014.2 |
| 20260831091805 | 61 | 57 | 1.0 | 2.0 | 0.00 | 0.08 | 0.00 | 78 | 1014.1 |
| 20260831091305 | 61 | 57 | 0.0 | 0.0 | 0.00 | 0.08 | 0.00 | 78 | 1014.1 |
| 20260831090805 | 61 | 57 | 0.0 | 0.0 | 0.00 | 0.08 | 0.00 | 78 | 1014.0 |
| 20260831090305 | 61 | 57 | 0.0 | 2.0 | 0.00 | 0.08 | 0.00 | 78 | 1014.1 |
| 20260831085805 | 61 | 57 | 2.0 | 3.0 | 0.00 | 0.08 | 0.00 | 77 | 1014.1 |
| 20260831085306 | 61 | 80 | 1.0 | 3.0 | 0.00 | 0.08 | 0.00 | 77 | 1014.1 |
| 20260831083804 | 62 | 80 | 0.0 | 0.0 | 0.00 | 0.10 | 0.00 | 76 | 1014.1 |
| 20260831083305 | 62 | 80 | 0.0 | 0.0 | 0.00 | 0.10 | 0.00 | 76 | 1014.1 |
| 20260831082805 | 62 | 80 | 0.0 | 0.0 | 0.00 | 0.10 | 0.00 | 76 | 1014.1 |
| 20260831082306 | 62 | 80 | 0.0 | 0.0 | 0.00 | 0.10 | 0.00 | 76 | 1014.1 |
| 20260831081805 | 62 | 80 | 0.0 | 0.0 | 0.00 | 0.10 | 0.00 | 75 | 1014.1 |
| 20260831081305 | 62 | 80 | 0.0 | 0.0 | 0.00 | 0.10 | 0.00 | 75 | 1014.1 |
| 20260831080805 | 62 | 80 | 0.0 | 0.0 | 0.00 | 0.10 | 0.00 | 73 | 1014.1 |
| 20260831080305 | 62 | 80 | 0.0 | 0.0 | 0.00 | 0.10 | 0.00 | 72 | 1014.4 |
| 20260831075805 | 63 | 80 | 0.0 | 0.0 | 0.00 | 0.10 | 0.00 | 72 | 1014.5 |
| 20260831075306 | 63 | 80 | 1.0 | 3.0 | 0.00 | 0.10 | 0.00 | 72 | 1014.5 |
| 20260831074804 | 63 | 80 | 2.0 | 3.0 | 0.00 | 0.10 | 0.00 | 72 | 1014.5 |
| 20260831074305 | 63 | 108 | 0.0 | 3.0 | 0.00 | 0.10 | 0.00 | 72 | 1014.5 |
| 20260831073805 | 63 | 118 | 1.0 | 3.0 | 0.00 | 0.10 | 0.00 | 72 | 1014.5 |
| 20260831073305 | 63 | 114 | 1.0 | 2.0 | 0.00 | 0.10 | 0.00 | 72 | 1014.5 |
| 20260831072804 | 63 | 101 | 0.0 | 2.0 | 0.00 | 0.10 | 0.00 | 73 | 1014.7 |
| 20260831072306 | 63 | 65 | 0.0 | 0.0 | 0.00 | 0.10 | 0.00 | 73 | 1014.7 |
| 20260831071805 | 63 | 65 | 0.0 | 0.0 | 0.00 | 0.10 | 0.00 | 74 | 1014.7 |
| 20260831071306 | 63 | 65 | 0.0 | 0.0 | 0.00 | 0.10 | 0.00 | 73 | 1014.7 |
| 20260831070804 | 64 | 65 | 0.0 | 0.0 | 0.00 | 0.10 | 0.00 | 73 | 1014.6 |
| 20260831065805 | 64 | 65 | 1.0 | 3.0 | 0.00 | 0.10 | 0.00 | 73 | 1014.5 |
| 20260831064305 | 64 | 65 | 0.0 | 0.0 | 0.00 | 0.10 | 0.00 | 73 | 1014.4 |
| 20260831063805 | 64 | 65 | 0.0 | 0.0 | 0.00 | 0.11 | 0.00 | 72 | 1014.4 |
| 20260831063305 | 64 | 65 | 0.0 | 0.0 | 0.00 | 0.11 | 0.00 | 73 | 1014.4 |
| 20260831062805 | 64 | 65 | 0.0 | 0.0 | 0.00 | 0.11 | 0.00 | 73 | 1014.4 |
| 20260831062306 | 64 | 65 | 0.0 | 2.0 | 0.00 | 0.11 | 0.00 | 73 | 1014.4 |
| 20260831061804 | 64 | 65 | 1.0 | 2.0 | 0.00 | 0.11 | 0.00 | 73 | 1014.3 |
| 20260831061305 | 64 | 65 | 0.0 | 2.0 | 0.00 | 0.11 | 0.00 | 73 | 1014.2 |
| 20260831060804 | 64 | 65 | 0.0 | 1.0 | 0.00 | 0.11 | 0.00 | 73 | 1014.5 |
| 20260831055804 | 65 | 65 | 2.0 | 3.0 | 0.00 | 0.11 | 0.11 | 73 | 1014.5 |
| 20260831055306 | 65 | 65 | 1.0 | 3.0 | 0.00 | 0.11 | 0.11 | 73 | 1014.5 |
| 20260831054805 | 65 | 65 | 2.0 | 3.0 | 0.00 | 0.11 | 0.11 | 74 | 1014.5 |
| 20260831054304 | 65 | 74 | 2.0 | 3.0 | 0.00 | 0.11 | 0.11 | 74 | 1014.5 |
| 20260831053805 | 65 | 74 | 2.0 | 3.0 | 0.00 | 0.11 | 0.11 | 74 | 1014.5 |
| 20260831053304 | 65 | 74 | 1.0 | 3.0 | 0.00 | 0.11 | 0.11 | 74 | 1014.4 |
| 20260831052804 | 65 | 74 | 2.0 | 3.0 | 0.00 | 0.11 | 0.11 | 74 | 1014.6 |
| 20260831051805 | 65 | 74 | 0.0 | 0.0 | 0.00 | 0.11 | 0.11 | 74 | 1014.7 |
| 20260831051305 | 65 | 74 | 0.0 | 0.0 | 0.00 | 0.11 | 0.11 | 74 | 1014.6 |
| 20260831050805 | 65 | 74 | 0.0 | 0.0 | 0.00 | 0.11 | 0.11 | 74 | 1014.7 |
| 20260831045804 | 66 | 74 | 2.0 | 3.0 | 0.00 | 0.12 | 0.11 | 74 | 1014.7 |
| 20260831045306 | 66 | 83 | 0.0 | 0.0 | 0.00 | 0.12 | 0.11 | 74 | 1014.7 |
| 20260831044804 | 66 | 124 | 0.0 | 1.0 | 0.00 | 0.13 | 0.11 | 74 | 1014.5 |
| 20260831044305 | 66 | 124 | 0.0 | 2.0 | 0.00 | 0.14 | 0.11 | 74 | 1014.5 |
| 20260831043805 | 66 | 124 | 0.0 | 2.0 | 0.00 | 0.15 | 0.11 | 74 | 1014.5 |
| 20260831043305 | 66 | 124 | 1.0 | 2.0 | 0.00 | 0.15 | 0.11 | 74 | 1014.3 |
| 20260831042805 | 66 | 124 | 2.0 | 2.0 | 0.00 | 0.15 | 0.11 | 73 | 1014.2 |
| 20260831042306 | 67 | 124 | 1.0 | 3.0 | 0.00 | 0.15 | 0.11 | 73 | 1014.4 |
| 20260831041804 | 67 | 151 | 2.0 | 3.0 | 0.00 | 0.15 | 0.11 | 72 | 1014.4 |
| 20260831040805 | 67 | 67 | 0.0 | 1.0 | 0.00 | 0.15 | 0.11 | 71 | 1014.1 |
| 20260831035805 | 68 | 30 | 0.0 | 0.0 | 0.00 | 0.15 | 0.11 | 70 | 1013.9 |